#timestamp,LO_Frequency,Hit,StdDev 
1562634015.8,286047002.4,N
1562634035.6,286046999.8,N
1562634055.5,286047001.9,N
1562634075.3,286047002.4,N
1562634095.1,286046999.8,N
1562634115.9,286047002.0,N
1562634135.7,286047001.3,N
1562634155.6,286047001.5,N
1562634175.4,286047002.6,N
1562634195.2,286047002.3,N
1562634215.1,286047000.3,N
1562634216.0,286047000.3,N
1562634235.8,286047001.2,N
1562634255.6,286046998.5,N
1562634275.5,286046998.2,N
1562634295.3,286046997.1,N
1562634315.2,286046997.3,N
1562634335.9,286046997.7,N
1562634355.7,286046998.7,N
1562634375.6,286047001.0,N
1562634395.4,286047000.1,N
1562634415.2,286047001.6,N
1562634435.1,286046999.8,N
1562634436.0,286046999.8,N
1562634455.8,286046999.8,N
1562634475.7,286047000.3,N
1562634495.5,286047002.3,N
1562634515.3,286047000.1,N
1562634535.2,286046999.1,N
1562634555.0,286046996.8,N
1562634555.9,286046996.8,N
1562634575.7,286046999.2,N
1562634595.6,286047000.8,N
1562634615.4,286047000.3,N
1562634635.3,286047000.6,N
1562634655.1,286047000.0,N
1562634656.0,286047000.0,N
1562634675.8,286047000.7,N
1562634695.7,286046999.9,N
1562634715.5,286047002.1,N
1562634735.4,286047001.5,N
1562634755.2,286047001.4,N
1562634775.0,286047004.0,N
1562634775.9,286047004.0,N
1562634795.8,286047003.0,N
1562634815.6,286047005.3,N
1562634835.4,286047005.1,N
1562634855.3,286047007.5,Y
1562634875.1,286047001.9,P
1562634895.9,286047002.8,P
1562634915.7,286046998.1,N
1562634935.5,286047000.8,N
1562634955.4,286047002.4,N
1562634975.2,286047002.1,N
1562634995.0,286047000.2,N
1562634995.9,286047000.2,N
1562635015.8,286046998.2,N
1562635035.6,286046999.0,N
1562635055.5,286046998.8,N
1562635075.3,286046998.8,N
1562635095.1,286046997.0,N
1562635115.9,286046997.1,N
1562635135.7,286046999.3,N
1562635155.5,286046998.7,N
1562635175.4,286046998.7,N
1562635195.2,286046999.2,N
1562635215.1,286046998.5,N
1562635216.0,286046998.5,N
1562635235.8,286047000.8,N
1562635255.6,286047001.5,N
1562635275.5,286047001.7,N
1562635295.3,286047002.6,N
1562635315.1,286047002.1,N
1562635335.9,286047002.0,N
1562635355.7,286047000.9,N
1562635375.6,286047002.7,N
1562635395.4,286047002.4,N
1562635415.2,286047000.2,N
1562635435.1,286046998.2,N
1562635436.0,286046998.2,N
1562635455.8,286046998.3,N
1562635475.7,286047000.6,N
1562635495.5,286047002.8,N
1562635515.3,286046998.3,N
1562635535.2,286047001.1,N
1562635555.0,286046998.1,N
1562635555.9,286046998.1,N
1562635575.7,286046999.1,N
1562635595.6,286046999.6,N
1562635615.4,286047001.1,N
1562635635.3,286047000.1,N
1562635655.1,286047002.7,N
1562635656.0,286047002.7,N
1562635675.8,286047002.3,N
1562635695.7,286047001.5,N
1562635715.5,286047001.9,N
1562635735.3,286047004.3,N
1562635755.2,286047001.8,N
1562635775.0,286047004.2,N
1562635775.9,286047004.2,N
1562635795.8,286047001.8,N
1562635815.6,286047002.6,N
1562635835.4,286047001.9,N
1562635855.3,286047004.4,N
1562635875.1,286047003.2,N
1562635895.8,286047004.3,N
1562635915.7,286047000.3,N
1562635935.5,286046999.4,N
1562635955.4,286046999.0,N
1562635975.2,286046997.9,N
1562635995.0,286046997.9,N
1562635995.9,286046997.9,N
1562636015.8,286046995.2,N
1562636035.6,286046993.3,N
1562636055.4,286046996.0,N
1562636075.3,286046993.4,N
1562636095.1,286046997.5,N
1562636115.9,286046997.4,N
1562636135.7,286046995.0,N
1562636155.5,286046996.7,N
1562636175.4,286046998.1,N
1562636195.2,286047000.3,N
1562636215.0,286047000.8,N
1562636215.9,286047000.8,N
1562636235.8,286047000.5,N
1562636255.6,286047002.4,N
1562636275.5,286047000.2,N
1562636295.3,286046999.7,N
1562636315.1,286046998.2,N
1562636335.9,286047000.2,N
1562636355.7,286047002.3,N
1562636375.6,286046999.8,N
1562636395.4,286046999.7,N
1562636415.2,286047000.5,N
1562636435.1,286047000.1,N
1562636436.0,286047000.1,N
1562636455.8,286047000.8,N
1562636475.6,286046998.2,N
1562636495.5,286047000.0,N
1562636515.3,286047001.1,N
1562636535.2,286047000.6,N
1562636555.9,286046998.1,N
1562636575.7,286047000.4,N
1562636595.6,286047002.2,N
1562636615.4,286047003.8,N
1562636635.2,286047003.9,N
1562636655.1,286047001.3,N
1562636656.0,286047001.3,N
1562636675.8,286047003.5,N
1562636695.7,286047003.3,N
1562636715.5,286047001.5,N
1562636735.3,286047002.0,N
1562636755.2,286047002.1,N
1562636775.0,286047000.2,N
1562636775.9,286047000.2,N
1562636795.8,286047001.8,N
1562636815.6,286047001.9,N
1562636835.4,286047002.8,N
1562636855.3,286047000.4,N
1562636875.1,286047002.8,N
1562636895.8,286046999.7,N
1562636915.7,286047000.3,N
1562636935.5,286047000.9,N
1562636955.4,286047001.1,N
1562636975.2,286046999.6,N
1562636995.0,286046999.1,N
1562636995.9,286046999.1,N
1562637015.8,286046997.0,N
1562637035.6,286046996.6,N
1562637055.5,286047000.8,N
1562637075.3,286046998.1,N
1562637095.1,286047000.1,N
1562637115.9,286047000.7,N
1562637135.7,286046998.7,N
1562637155.5,286047000.7,N
1562637175.4,286047002.6,N
1562637195.2,286047000.2,N
1562637215.1,286047002.0,N
1562637216.0,286047002.0,N
1562637235.8,286047001.5,N
1562637255.6,286047002.3,N
1562637275.5,286047002.7,N
1562637295.3,286047002.7,N
1562637315.1,286046999.8,N
1562637335.9,286047001.8,N
1562637355.7,286047002.1,N
1562637375.6,286047000.1,N
1562637395.4,286047002.2,N
1562637415.2,286047000.3,N
1562637435.1,286047000.5,N
1562637436.0,286047000.5,N
1562637455.8,286047000.8,N
1562637475.6,286047002.4,N
1562637495.5,286047002.3,N
1562637515.3,286047002.5,N
1562637535.2,286047002.7,N
1562637555.9,286047002.1,N
1562637575.7,286047001.4,N
1562637595.6,286047003.3,N
